Back to catalog

SEASAT 1

AliveScienceLEO
NORAD 10967·PAYLOAD·🇺🇸 United States

Launched Jun 27, 1978 from Vandenberg Space Force Base

Loading…

Next Passes (next 24 hours)

TLE

FreshSource: Space-Track

Epoch: Sep 13, 2026, 15:14 UTC

1 10967U 78064A   26256.63514928  .00000135  00000-0  76109-4 0  9993
2 10967 108.0078 159.9473 0002157 299.5138  60.5793 14.46286902533686

Track SEASAT 1 in real time with AllMySat

Download on the App Store